Time,TemperatureF,DewpointF,PressureIn,WindDirection,WindDirectionDegrees,WindSpeedMPH,WindSpeedGustMPH,Humidity,HourlyPrecipIn,Conditions,Clouds,dailyrainin,SoftwareType,DateUTC
2013-04-10 00:00:00,47.8,45.6,29.91,NNE,18,7.0,10.0,92,0.00,-RA,,0.69,WeatherDisplay:10.37,2013-04-10 04:00:00,
2013-04-10 00:05:00,47.6,45.4,29.92,North,355,3.7,7.0,92,0.00,-RA,,0.00,WeatherDisplay:10.37,2013-04-10 04:05:00,
2013-04-10 00:10:00,47.4,45.2,29.91,NNE,21,5.1,6.9,92,0.00,-RA,,0.00,WeatherDisplay:10.37,2013-04-10 04:10:00,
2013-04-10 00:15:00,47.3,45.1,29.92,NNE,25,5.4,9.2,92,0.00,-RA,,0.00,WeatherDisplay:10.37,2013-04-10 04:15:00,
2013-04-10 00:20:00,47.2,45.0,29.91,NE,39,5.5,8.1,92,0.00,-RA,,0.00,WeatherDisplay:10.37,2013-04-10 04:20:00,
2013-04-10 00:25:00,47.1,44.9,29.90,NNE,30,6.1,12.7,92,0.01,-RA,,0.01,WeatherDisplay:10.37,2013-04-10 04:25:00,
2013-04-10 00:31:00,47.0,44.8,29.90,NNE,28,5.2,6.9,92,0.01,-RA,,0.01,WeatherDisplay:10.37,2013-04-10 04:31:00,
2013-04-10 00:36:00,47.0,44.8,29.90,NE,36,4.9,10.4,92,0.01,-RA,,0.01,WeatherDisplay:10.37,2013-04-10 04:36:00,
2013-04-10 00:41:00,46.9,44.7,29.90,NNE,32,6.4,11.5,92,0.01,-RA,,0.01,WeatherDisplay:10.37,2013-04-10 04:41:00,
2013-04-10 00:46:00,46.9,44.7,29.90,NE,44,8.3,10.4,92,0.01,-RA,,0.01,WeatherDisplay:10.37,2013-04-10 04:46:00,
2013-04-10 00:51:00,46.8,44.6,29.90,NE,43,3.8,5.0,92,0.01,-RA,,0.01,WeatherDisplay:10.37,2013-04-10 04:51:00,
2013-04-10 00:56:00,46.8,44.6,29.91,NE,35,3.6,6.9,92,0.01,-RA,,0.01,WeatherDisplay:10.37,2013-04-10 04:56:00,
2013-04-10 01:01:00,46.8,44.6,29.91,NE,36,4.6,6.9,92,0.01,-RA,,0.01,WeatherDisplay:10.37,2013-04-10 05:01:00,
2013-04-10 01:07:00,46.8,44.6,29.93,NE,42,4.9,8.1,92,0.02,RA,,0.02,WeatherDisplay:10.37,2013-04-10 05:07:00,
2013-04-10 01:12:00,46.9,44.7,29.93,NE,38,1.6,4.6,92,0.03,RA,,0.03,WeatherDisplay:10.37,2013-04-10 05:12:00,
2013-04-10 01:17:00,46.9,44.7,29.93,NE,42,0.1,3.5,92,0.04,RA,,0.04,WeatherDisplay:10.37,2013-04-10 05:17:00,
2013-04-10 01:22:00,46.9,44.7,29.93,NE,55,1.9,3.5,92,0.04,RA,,0.04,WeatherDisplay:10.37,2013-04-10 05:22:00,
2013-04-10 01:27:00,46.9,44.7,29.93,NE,55,2.0,3.5,92,0.04,RA,,0.05,WeatherDisplay:10.37,2013-04-10 05:27:00,
2013-04-10 01:32:00,46.9,44.7,29.93,NE,39,5.4,9.2,92,0.05,-RA,,0.06,WeatherDisplay:10.37,2013-04-10 05:32:00,
2013-04-10 01:38:00,46.9,44.7,29.93,NE,39,3.6,5.8,92,0.05,-RA,,0.06,WeatherDisplay:10.37,2013-04-10 05:38:00,
2013-04-10 01:43:00,47.0,44.8,29.93,NE,40,2.9,4.6,92,0.05,-RA,,0.06,WeatherDisplay:10.37,2013-04-10 05:43:00,
2013-04-10 01:48:00,47.0,44.8,29.94,NE,40,2.7,5.0,92,0.05,-RA,,0.06,WeatherDisplay:10.37,2013-04-10 05:48:00,
2013-04-10 01:53:00,47.0,44.8,29.93,NE,40,2.8,4.6,92,0.05,-RA,,0.06,WeatherDisplay:10.37,2013-04-10 05:53:00,
2013-04-10 01:58:00,47.0,44.8,29.93,NE,41,3.0,3.5,92,0.06,-RA,,0.07,WeatherDisplay:10.37,2013-04-10 05:58:00,
2013-04-10 02:03:00,47.0,44.8,29.94,NE,36,1.3,3.5,92,0.06,-RA,,0.07,WeatherDisplay:10.37,2013-04-10 06:03:00,
2013-04-10 02:08:00,47.0,44.8,29.94,NE,36,1.5,3.5,92,0.05,-RA,,0.07,WeatherDisplay:10.37,2013-04-10 06:08:00,
2013-04-10 02:13:00,47.0,44.8,29.93,NNE,23,3.2,3.5,92,0.04,-RA,,0.07,WeatherDisplay:10.37,2013-04-10 06:13:00,
2013-04-10 02:18:00,47.0,44.8,29.93,NNE,26,2.8,3.5,92,0.03,-RA,,0.07,WeatherDisplay:10.37,2013-04-10 06:18:00,
2013-04-10 02:23:00,47.0,44.8,29.93,NNE,28,0.0,1.0,92,0.00,-RA,,0.07,WeatherDisplay:10.37,2013-04-10 06:23:00,
2013-04-10 02:28:00,47.0,44.8,29.93,NNE,32,0.0,0.0,92,0.02,-RA,,0.07,WeatherDisplay:10.37,2013-04-10 06:28:00,
2013-04-10 02:33:00,47.0,44.8,29.93,NE,34,2.6,4.6,92,0.01,-RA,,0.07,WeatherDisplay:10.37,2013-04-10 06:33:00,
2013-04-10 02:38:00,47.0,44.8,29.93,NE,34,0.0,0.0,92,0.00,-RA,,0.07,WeatherDisplay:10.37,2013-04-10 06:38:00,
2013-04-10 02:43:00,47.0,44.8,29.92,NE,34,0.0,0.0,92,0.01,-RA,,0.07,WeatherDisplay:10.37,2013-04-10 06:43:00,
2013-04-10 02:48:00,47.0,44.8,29.93,NE,34,1.0,4.0,92,0.00,-RA,,0.07,WeatherDisplay:10.37,2013-04-10 06:48:00,
2013-04-10 02:53:00,47.0,44.8,29.93,NE,35,0.2,3.5,92,0.01,-RA,,0.07,WeatherDisplay:10.37,2013-04-10 06:53:00,
2013-04-10 02:58:00,47.0,44.8,29.92,NE,35,0.3,2.3,92,0.00,-RA,,0.07,WeatherDisplay:10.37,2013-04-10 06:58:00,
2013-04-10 03:03:00,47.0,44.8,29.93,NE,35,1.0,3.0,92,0.00,RA,,0.08,WeatherDisplay:10.37,2013-04-10 07:03:00,
2013-04-10 03:08:00,47.0,44.8,29.93,NE,35,0.0,0.0,92,0.00,RA,,0.08,WeatherDisplay:10.37,2013-04-10 07:08:00,
2013-04-10 03:13:00,47.0,44.8,29.93,NE,35,0.0,0.0,92,0.01,RA,,0.08,WeatherDisplay:10.37,2013-04-10 07:13:00,
2013-04-10 03:18:00,47.0,44.8,29.92,NE,35,2.0,3.0,92,0.00,OVC,,0.08,WeatherDisplay:10.37,2013-04-10 07:18:00,
2013-04-10 03:23:00,46.9,44.7,29.92,NE,35,0.6,3.5,92,0.01,OVC,,0.08,WeatherDisplay:10.37,2013-04-10 07:23:00,
2013-04-10 03:28:00,47.0,44.8,29.93,NE,35,2.2,3.5,92,0.01,OVC,,0.08,WeatherDisplay:10.37,2013-04-10 07:28:00,
2013-04-10 03:33:00,47.0,44.8,29.93,NE,34,2.0,4.0,92,0.00,OVC,,0.08,WeatherDisplay:10.37,2013-04-10 07:33:00,
2013-04-10 03:38:00,47.0,44.8,29.93,NE,36,3.2,3.5,92,0.01,OVC,,0.08,WeatherDisplay:10.37,2013-04-10 07:38:00,
2013-04-10 03:43:00,47.0,44.8,29.93,NE,35,1.0,2.0,92,0.00,OVC,,0.08,WeatherDisplay:10.37,2013-04-10 07:43:00,
2013-04-10 03:48:00,46.9,44.7,29.93,NE,39,2.9,3.5,92,0.01,OVC,,0.08,WeatherDisplay:10.37,2013-04-10 07:48:00,
2013-04-10 03:53:00,46.9,44.7,29.93,NE,36,3.5,4.6,92,0.01,OVC,,0.08,WeatherDisplay:10.37,2013-04-10 07:53:00,
2013-04-10 03:58:00,46.9,45.0,29.93,NE,34,3.2,4.6,93,0.01,OVC,,0.08,WeatherDisplay:10.37,2013-04-10 07:58:00,
2013-04-10 04:03:00,46.9,45.0,29.94,NNE,27,3.4,4.6,93,0.00,-RA,,0.08,WeatherDisplay:10.37,2013-04-10 08:03:00,
2013-04-10 04:08:00,46.9,45.0,29.94,NNE,32,0.2,2.3,93,0.00,-RA,,0.08,WeatherDisplay:10.37,2013-04-10 08:08:00,
2013-04-10 04:13:00,46.8,44.9,29.94,NNE,32,0.0,0.0,93,0.00,-RA,,0.08,WeatherDisplay:10.37,2013-04-10 08:13:00,
2013-04-10 04:18:00,46.8,44.9,29.93,NNE,32,2.5,4.0,93,0.00,-RA,,0.08,WeatherDisplay:10.37,2013-04-10 08:18:00,
2013-04-10 04:23:00,46.8,44.9,29.93,NE,34,0.0,0.0,93,0.00,-RA,,0.08,WeatherDisplay:10.37,2013-04-10 08:23:00,
2013-04-10 04:28:00,46.8,44.9,29.93,NE,35,3.4,4.6,93,0.00,-RA,,0.08,WeatherDisplay:10.37,2013-04-10 08:28:00,
2013-04-10 04:33:00,46.7,44.8,29.93,NE,34,0.4,3.5,93,0.00,-RA,,0.08,WeatherDisplay:10.37,2013-04-10 08:33:00,
2013-04-10 04:38:00,46.7,44.8,29.94,NE,34,2.3,3.5,93,0.00,-RA,,0.08,WeatherDisplay:10.37,2013-04-10 08:38:00,
2013-04-10 04:43:00,46.7,44.8,29.93,NE,34,4.1,5.8,93,0.00,-RA,,0.08,WeatherDisplay:10.37,2013-04-10 08:43:00,
2013-04-10 04:48:00,46.7,44.8,29.94,NE,35,2.5,3.5,93,0.00,-RA,,0.08,WeatherDisplay:10.37,2013-04-10 08:48:00,
2013-04-10 04:53:00,46.6,44.7,29.93,NE,35,1.1,2.3,93,0.00,-RA,,0.08,WeatherDisplay:10.37,2013-04-10 08:53:00,
2013-04-10 04:58:00,46.6,44.7,29.93,NE,35,3.1,4.6,93,0.00,-RA,,0.08,WeatherDisplay:10.37,2013-04-10 08:58:00,
2013-04-10 05:03:00,46.6,44.7,29.92,NE,41,3.7,5.0,93,0.00,OVC,,0.08,WeatherDisplay:10.37,2013-04-10 09:03:00,
2013-04-10 05:08:00,46.5,44.6,29.93,NNE,26,4.3,6.9,93,0.00,OVC,,0.08,WeatherDisplay:10.37,2013-04-10 09:08:00,
2013-04-10 05:13:00,46.5,44.3,29.94,NNE,21,4.1,5.8,92,0.00,OVC,,0.08,WeatherDisplay:10.37,2013-04-10 09:13:00,
2013-04-10 05:18:00,46.5,44.3,29.94,NE,38,4.4,6.9,92,0.00,OVC,,0.08,WeatherDisplay:10.37,2013-04-10 09:18:00,
2013-04-10 05:23:00,46.4,44.2,29.92,NE,43,5.1,6.9,92,0.00,OVC,,0.08,WeatherDisplay:10.37,2013-04-10 09:23:00,
2013-04-10 05:28:00,46.3,44.1,29.92,NNE,27,3.0,4.6,92,0.00,OVC,,0.08,WeatherDisplay:10.37,2013-04-10 09:28:00,
2013-04-10 05:33:00,46.2,44.3,29.94,NNE,22,3.6,5.8,93,0.00,OVC,,0.08,WeatherDisplay:10.37,2013-04-10 09:33:00,
2013-04-10 05:38:00,46.1,44.2,29.95,North,11,1.2,3.0,93,0.00,OVC,,0.08,WeatherDisplay:10.37,2013-04-10 09:38:00,
2013-04-10 05:43:00,46.0,44.1,29.94,NNE,32,4.0,6.9,93,0.00,OVC,,0.08,WeatherDisplay:10.37,2013-04-10 09:43:00,
2013-04-10 05:48:00,45.9,44.0,29.93,NE,44,3.9,4.6,93,0.00,OVC,,0.08,WeatherDisplay:10.37,2013-04-10 09:48:00,
2013-04-10 05:53:00,45.8,43.6,29.92,NNE,28,4.2,5.0,92,0.00,OVC,,0.08,WeatherDisplay:10.37,2013-04-10 09:53:00,
2013-04-10 05:58:00,45.7,43.5,29.92,NNE,28,6.0,9.2,92,0.00,OVC,,0.08,WeatherDisplay:10.37,2013-04-10 09:58:00,
2013-04-10 06:03:00,45.6,43.7,29.92,ENE,63,4.3,9.2,93,0.00,OVC,,0.08,WeatherDisplay:10.37,2013-04-10 10:03:00,
2013-04-10 06:08:00,45.5,43.6,29.92,NNE,30,5.0,10.4,93,0.00,OVC,,0.08,WeatherDisplay:10.37,2013-04-10 10:08:00,
2013-04-10 06:13:00,45.4,43.2,29.93,NE,40,3.5,8.0,92,0.00,OVC,,0.08,WeatherDisplay:10.37,2013-04-10 10:13:00,
2013-04-10 06:18:00,45.3,43.1,29.94,NE,34,5.2,6.9,92,0.00,OVC,,0.08,WeatherDisplay:10.37,2013-04-10 10:18:00,
2013-04-10 06:23:00,45.3,43.1,29.95,NE,41,5.3,5.8,92,0.00,OVC,,0.08,WeatherDisplay:10.37,2013-04-10 10:23:00,
2013-04-10 06:28:00,45.3,43.1,29.96,NNE,16,4.2,5.0,92,0.00,OVC,,0.08,WeatherDisplay:10.37,2013-04-10 10:28:00,
2013-04-10 06:33:00,45.3,43.1,29.96,NE,34,5.6,8.1,92,0.00,OVC,,0.08,WeatherDisplay:10.37,2013-04-10 10:33:00,
2013-04-10 06:38:00,45.2,43.3,29.96,NE,43,4.6,7.0,93,0.00,OVC,,0.08,WeatherDisplay:10.37,2013-04-10 10:38:00,
2013-04-10 06:43:00,45.1,43.2,29.96,NNE,26,5.2,11.5,93,0.00,OVC,,0.08,WeatherDisplay:10.37,2013-04-10 10:43:00,
2013-04-10 06:48:00,45.0,43.1,29.96,NE,34,4.6,5.8,93,0.00,OVC,,0.08,WeatherDisplay:10.37,2013-04-10 10:48:00,
2013-04-10 06:53:00,45.0,43.1,29.96,NE,38,2.0,6.0,93,0.00,OVC,,0.08,WeatherDisplay:10.37,2013-04-10 10:53:00,
2013-04-10 06:58:00,45.0,43.1,29.96,NE,42,3.5,9.2,93,0.00,OVC,,0.08,WeatherDisplay:10.37,2013-04-10 10:58:00,
2013-04-10 07:03:00,45.0,43.1,29.97,NE,35,3.6,5.8,93,0.00,OVC,,0.08,WeatherDisplay:10.37,2013-04-10 11:03:00,
2013-04-10 07:08:00,45.0,43.1,29.95,North,11,3.0,3.5,93,0.00,OVC,,0.08,WeatherDisplay:10.37,2013-04-10 11:08:00,
2013-04-10 07:13:00,45.0,43.1,29.95,NE,40,6.2,8.1,93,0.00,OVC,,0.08,WeatherDisplay:10.37,2013-04-10 11:13:00,
2013-04-10 07:18:00,44.8,42.9,29.95,NE,51,4.4,6.9,93,0.00,OVC,,0.08,WeatherDisplay:10.37,2013-04-10 11:18:00,
2013-04-10 07:23:00,44.8,42.9,29.95,NE,53,4.6,6.9,93,0.00,-DZ,,0.08,WeatherDisplay:10.37,2013-04-10 11:23:00,
2013-04-10 07:28:00,44.8,42.9,29.96,NE,34,6.9,11.5,93,0.00,-DZ,,0.08,WeatherDisplay:10.37,2013-04-10 11:28:00,
2013-04-10 07:33:00,44.7,42.8,29.96,NE,51,7.4,10.4,93,0.00,-DZ,,0.08,WeatherDisplay:10.37,2013-04-10 11:33:00,
2013-04-10 07:38:00,44.6,42.7,29.95,NE,55,9.1,11.5,93,0.00,-DZ,,0.08,WeatherDisplay:10.37,2013-04-10 11:38:00,
2013-04-10 07:43:00,44.6,42.7,29.96,NE,42,4.4,8.1,93,0.00,-DZ,,0.08,WeatherDisplay:10.37,2013-04-10 11:43:00,
2013-04-10 07:48:00,44.6,42.7,29.96,ENE,76,3.7,6.9,93,0.00,-DZ,,0.08,WeatherDisplay:10.37,2013-04-10 11:48:00,
2013-04-10 07:53:00,44.7,42.8,29.95,NE,50,6.4,10.4,93,0.00,-DZ,,0.08,WeatherDisplay:10.37,2013-04-10 11:53:00,
2013-04-10 07:58:00,44.7,42.8,29.96,NE,45,3.9,10.4,93,0.00,-DZ,,0.08,WeatherDisplay:10.37,2013-04-10 11:58:00,
2013-04-10 08:03:00,44.8,42.9,29.96,NE,41,0.0,6.9,93,0.00,-DZ,,0.08,WeatherDisplay:10.37,2013-04-10 12:03:00,
2013-04-10 08:09:00,44.9,43.0,29.96,NE,42,3.4,5.8,93,0.00,-DZ,,0.08,WeatherDisplay:10.37,2013-04-10 12:09:00,
2013-04-10 08:14:00,45.0,43.1,29.95,ENE,66,4.5,7.0,93,0.00,-DZ,,0.08,WeatherDisplay:10.37,2013-04-10 12:14:00,
2013-04-10 08:19:00,45.0,43.1,29.96,NE,37,4.7,7.0,93,0.00,-DZ,,0.08,WeatherDisplay:10.37,2013-04-10 12:19:00,
2013-04-10 08:24:00,45.1,43.2,29.96,ENE,61,3.2,4.6,93,0.00,-DZ,,0.08,WeatherDisplay:10.37,2013-04-10 12:24:00,
2013-04-10 08:29:00,45.2,43.3,29.95,ENE,74,2.9,4.6,93,0.00,-DZ,,0.08,WeatherDisplay:10.37,2013-04-10 12:29:00,
2013-04-10 08:34:00,45.3,43.4,29.96,ENE,74,1.3,1.3,93,0.00,-DZ,,0.08,WeatherDisplay:10.37,2013-04-10 12:34:00,
2013-04-10 08:39:00,45.4,43.5,29.96,NE,37,6.2,8.1,93,0.00,-DZ,,0.08,WeatherDisplay:10.37,2013-04-10 12:39:00,
2013-04-10 08:44:00,45.4,43.5,29.96,NE,51,2.6,8.1,93,0.00,OVC,,0.08,WeatherDisplay:10.37,2013-04-10 12:44:00,
2013-04-10 08:49:00,45.4,43.5,29.96,NE,51,5.3,6.9,93,0.00,OVC,,0.08,WeatherDisplay:10.37,2013-04-10 12:49:00,
2013-04-10 08:54:00,45.4,43.5,29.96,NE,48,4.3,4.3,93,0.00,-DZ,,0.08,WeatherDisplay:10.37,2013-04-10 12:54:00,
2013-04-10 08:59:00,45.5,43.6,29.97,NNE,28,5.6,8.1,93,0.00,-DZ,,0.08,WeatherDisplay:10.37,2013-04-10 12:59:00,
2013-04-10 09:04:00,45.5,43.6,29.97,NE,46,5.8,8.1,93,0.00,-DZ,,0.08,WeatherDisplay:10.37,2013-04-10 13:04:00,
2013-04-10 09:09:00,45.5,43.6,29.96,NE,53,8.3,12.7,93,0.00,-DZ,,0.08,WeatherDisplay:10.37,2013-04-10 13:09:00,
2013-04-10 09:14:00,45.5,43.6,29.96,NE,36,6.0,9.0,93,0.00,-DZ,,0.08,WeatherDisplay:10.37,2013-04-10 13:14:00,
2013-04-10 09:19:00,45.5,43.6,29.96,NNE,17,4.5,8.1,93,0.00,-DZ,,0.08,WeatherDisplay:10.37,2013-04-10 13:19:00,
2013-04-10 09:24:00,45.5,43.6,29.95,NE,38,6.0,8.0,93,0.00,-DZ,,0.08,WeatherDisplay:10.37,2013-04-10 13:24:00,
2013-04-10 09:29:00,45.5,43.6,29.94,ENE,63,5.4,8.1,93,0.00,-DZ,,0.08,WeatherDisplay:10.37,2013-04-10 13:29:00,
2013-04-10 09:34:00,45.5,43.6,29.95,NE,44,5.0,9.0,93,0.00,-DZ,,0.08,WeatherDisplay:10.37,2013-04-10 13:34:00,
2013-04-10 09:39:00,45.4,43.5,29.96,NE,53,6.3,8.1,93,0.00,-DZ,,0.08,WeatherDisplay:10.37,2013-04-10 13:39:00,
2013-04-10 09:44:00,45.2,43.3,29.95,NE,34,6.3,9.2,93,0.00,-DZ,,0.08,WeatherDisplay:10.37,2013-04-10 13:44:00,
2013-04-10 09:49:00,45.1,43.2,29.95,NE,45,5.0,10.0,93,0.00,-DZ,,0.08,WeatherDisplay:10.37,2013-04-10 13:49:00,
2013-04-10 09:54:00,45.0,43.1,29.97,NE,50,6.2,10.4,93,0.00,-DZ,,0.08,WeatherDisplay:10.37,2013-04-10 13:54:00,
2013-04-10 09:59:00,45.0,43.1,29.96,NNE,30,4.2,6.9,93,0.00,-DZ,,0.08,WeatherDisplay:10.37,2013-04-10 13:59:00,
2013-04-10 10:04:00,45.0,43.1,29.97,NE,48,1.5,6.9,93,0.00,-DZ,,0.08,WeatherDisplay:10.37,2013-04-10 14:04:00,
2013-04-10 10:09:00,45.0,43.1,29.98,NE,40,2.5,4.0,93,0.00,-DZ,,0.08,WeatherDisplay:10.37,2013-04-10 14:09:00,
2013-04-10 10:14:00,45.0,43.1,30.02,NE,46,0.0,0.0,93,0.00,-RA,,0.08,WeatherDisplay:10.37,2013-04-10 14:14:00,
2013-04-10 10:19:00,44.9,43.0,29.96,NE,44,6.6,11.5,93,0.03,-RA,,0.12,WeatherDisplay:10.37,2013-04-10 14:19:00,
2013-04-10 10:24:00,44.8,42.9,29.96,NE,46,7.3,9.2,93,0.06,-RA,,0.14,WeatherDisplay:10.37,2013-04-10 14:24:00,
2013-04-10 10:29:00,44.7,42.8,29.99,NNW,334,5.6,8.1,93,0.08,-RA,,0.16,WeatherDisplay:10.37,2013-04-10 14:29:00,
2013-04-10 10:34:00,44.7,42.8,30.00,NNE,23,4.9,6.9,93,0.09,-RA,,0.18,WeatherDisplay:10.37,2013-04-10 14:34:00,
2013-04-10 10:39:00,44.7,42.8,29.94,ENE,57,3.5,6.9,93,0.12,-RA,,0.21,WeatherDisplay:10.37,2013-04-10 14:39:00,
2013-04-10 10:44:00,44.6,42.7,29.88,NE,52,6.0,9.2,93,0.16,-RA,,0.24,WeatherDisplay:10.37,2013-04-10 14:44:00,
2013-04-10 10:49:00,44.5,42.6,29.89,NE,46,8.6,11.5,93,0.18,-RA,,0.26,WeatherDisplay:10.37,2013-04-10 14:49:00,
2013-04-10 10:54:00,44.4,42.5,29.93,NNE,25,5.1,9.2,93,0.19,-RA,,0.27,WeatherDisplay:10.37,2013-04-10 14:54:00,
2013-04-10 10:59:00,44.5,42.6,29.99,NW,325,2.4,3.5,93,0.19,-RA,,0.27,WeatherDisplay:10.37,2013-04-10 14:59:00,
2013-04-10 11:04:00,44.5,42.6,29.98,NNE,27,6.4,8.1,93,0.19,-RA,,0.27,WeatherDisplay:10.37,2013-04-10 15:04:00,
2013-04-10 11:09:00,44.6,42.7,29.98,NE,34,4.8,6.9,93,0.20,-RA,,0.28,WeatherDisplay:10.37,2013-04-10 15:09:00,
2013-04-10 11:14:00,44.6,42.7,30.00,NNE,14,3.9,5.8,93,0.20,-RA,,0.28,WeatherDisplay:10.37,2013-04-10 15:14:00,
2013-04-10 11:19:00,44.7,42.8,29.99,NE,50,2.8,3.5,93,0.21,-RA,,0.29,WeatherDisplay:10.37,2013-04-10 15:19:00,
2013-04-10 11:24:00,44.6,42.7,29.95,NE,54,9.7,12.7,93,0.19,-RA,,0.32,WeatherDisplay:10.37,2013-04-10 15:24:00,
2013-04-10 11:29:00,44.4,42.5,29.94,NE,52,4.8,10.4,93,0.21,-RA,,0.36,WeatherDisplay:10.37,2013-04-10 15:29:00,
2013-04-10 11:34:00,44.3,42.4,29.94,ENE,61,5.0,9.2,93,0.21,-RA,,0.37,WeatherDisplay:10.37,2013-04-10 15:34:00,
2013-04-10 11:39:00,44.4,42.5,29.94,ENE,63,3.7,8.1,93,0.20,-RA,,0.38,WeatherDisplay:10.37,2013-04-10 15:39:00,
2013-04-10 11:44:00,44.4,42.5,29.94,ENE,67,2.1,8.1,93,0.15,-RA,,0.38,WeatherDisplay:10.37,2013-04-10 15:44:00,
2013-04-10 11:49:00,44.4,42.5,29.94,NE,51,7.0,11.5,93,0.12,-RA,,0.38,WeatherDisplay:10.37,2013-04-10 15:49:00,
2013-04-10 11:54:00,44.5,42.6,29.93,ENE,60,3.9,6.9,93,0.11,-RA,,0.38,WeatherDisplay:10.37,2013-04-10 15:54:00,
2013-04-10 11:59:00,44.6,42.7,29.93,East,80,5.8,10.4,93,0.11,-RA,,0.38,WeatherDisplay:10.37,2013-04-10 15:59:00,
2013-04-10 12:04:00,44.7,42.8,29.92,ENE,74,5.7,10.4,93,0.11,-RA,,0.38,WeatherDisplay:10.37,2013-04-10 16:04:00,
2013-04-10 12:09:00,44.9,43.0,29.93,NW,313,2.8,4.6,93,0.11,-RA,,0.38,WeatherDisplay:10.37,2013-04-10 16:09:00,
2013-04-10 12:14:00,45.0,43.1,29.92,East,94,4.8,8.1,93,0.10,-RA,,0.38,WeatherDisplay:10.37,2013-04-10 16:14:00,
2013-04-10 12:19:00,45.1,43.2,29.92,North,355,0.3,3.5,93,0.09,-RA,,0.38,WeatherDisplay:10.37,2013-04-10 16:19:00,
2013-04-10 12:24:00,45.4,43.5,29.92,ENE,57,5.7,10.4,93,0.07,OVC,,0.38,WeatherDisplay:10.37,2013-04-10 16:24:00,
2013-04-10 12:29:00,45.5,43.6,29.93,NE,46,3.7,5.0,93,0.04,OVC,,0.38,WeatherDisplay:10.37,2013-04-10 16:29:00,
2013-04-10 12:34:00,45.5,43.6,29.92,ENE,76,1.2,3.5,93,0.01,OVC,,0.38,WeatherDisplay:10.37,2013-04-10 16:34:00,
2013-04-10 12:39:00,45.6,43.7,29.92,NNE,31,5.9,9.2,93,0.00,OVC,,0.38,WeatherDisplay:10.37,2013-04-10 16:39:00,
2013-04-10 12:44:00,45.6,43.7,29.93,NE,48,2.9,5.0,93,0.00,OVC,,0.38,WeatherDisplay:10.37,2013-04-10 16:44:00,
2013-04-10 12:49:00,45.5,43.6,29.92,NE,46,4.7,8.1,93,0.00,OVC,,0.38,WeatherDisplay:10.37,2013-04-10 16:49:00,
2013-04-10 12:54:00,45.5,43.6,29.91,NE,38,3.1,4.6,93,0.00,OVC,,0.38,WeatherDisplay:10.37,2013-04-10 16:54:00,
2013-04-10 12:59:00,45.6,43.7,29.90,NE,41,7.7,11.5,93,0.00,OVC,,0.38,WeatherDisplay:10.37,2013-04-10 16:59:00,
2013-04-10 13:04:00,45.6,43.7,29.90,ENE,74,4.6,12.7,93,0.00,OVC,,0.38,WeatherDisplay:10.37,2013-04-10 17:04:00,
2013-04-10 13:09:00,45.7,43.8,29.89,NE,54,5.2,10.4,93,0.00,OVC,,0.38,WeatherDisplay:10.37,2013-04-10 17:09:00,
2013-04-10 13:14:00,45.9,44.0,29.90,NNE,29,1.7,7.0,93,0.00,OVC,,0.38,WeatherDisplay:10.37,2013-04-10 17:14:00,
2013-04-10 13:19:00,45.8,43.9,29.90,ENE,63,7.2,11.5,93,0.00,OVC,,0.38,WeatherDisplay:10.37,2013-04-10 17:19:00,
2013-04-10 13:24:00,45.6,43.7,29.89,ENE,71,4.4,10.4,93,0.00,OVC,,0.38,WeatherDisplay:10.37,2013-04-10 17:24:00,
2013-04-10 13:29:00,45.5,43.6,29.89,East,90,5.4,8.1,93,0.00,OVC,,0.38,WeatherDisplay:10.37,2013-04-10 17:29:00,
2013-04-10 13:34:00,45.4,43.5,29.88,NE,44,3.9,9.2,93,0.00,OVC,,0.38,WeatherDisplay:10.37,2013-04-10 17:34:00,
2013-04-10 13:39:00,45.4,43.5,29.88,ENE,69,5.9,8.1,93,0.00,OVC,,0.38,WeatherDisplay:10.37,2013-04-10 17:39:00,
2013-04-10 13:44:00,45.3,43.4,29.88,ENE,71,5.3,9.2,93,0.00,OVC,,0.38,WeatherDisplay:10.37,2013-04-10 17:44:00,
2013-04-10 13:49:00,45.3,43.4,29.88,ENE,59,8.8,12.0,93,0.00,OVC,,0.38,WeatherDisplay:10.37,2013-04-10 17:49:00,
2013-04-10 13:54:00,45.2,43.3,29.89,NE,53,7.0,10.4,93,0.00,OVC,,0.38,WeatherDisplay:10.37,2013-04-10 17:54:00,
2013-04-10 13:59:00,45.0,43.1,29.89,NE,53,3.6,10.4,93,0.00,OVC,,0.38,WeatherDisplay:10.37,2013-04-10 17:59:00,
2013-04-10 14:04:00,45.0,43.1,29.89,ENE,70,3.8,7.0,93,0.00,OVC,,0.38,WeatherDisplay:10.37,2013-04-10 18:04:00,
2013-04-10 14:09:00,44.9,43.0,29.88,NE,37,4.7,9.2,93,0.00,OVC,,0.38,WeatherDisplay:10.37,2013-04-10 18:09:00,
2013-04-10 14:14:00,44.8,42.9,29.88,NE,47,6.5,10.4,93,0.00,OVC,,0.38,WeatherDisplay:10.37,2013-04-10 18:14:00,
2013-04-10 14:19:00,44.7,42.8,29.88,ENE,66,7.9,11.5,93,0.00,OVC,,0.38,WeatherDisplay:10.37,2013-04-10 18:19:00,
2013-04-10 14:24:00,44.7,42.8,29.88,NNE,29,6.6,10.0,93,0.00,OVC,,0.38,WeatherDisplay:10.37,2013-04-10 18:24:00,
2013-04-10 14:30:00,44.7,42.8,29.89,NNE,30,7.1,11.5,93,0.00,OVC,,0.38,WeatherDisplay:10.37,2013-04-10 18:30:00,
2013-04-10 14:35:00,44.4,42.5,29.88,NE,52,9.9,13.0,93,0.00,-DZ,,0.38,WeatherDisplay:10.37,2013-04-10 18:35:00,
2013-04-10 14:40:00,44.2,42.3,29.88,NNE,32,6.7,11.5,93,0.00,-DZ,,0.38,WeatherDisplay:10.37,2013-04-10 18:40:00,
2013-04-10 14:45:00,44.1,42.2,29.86,ENE,57,4.0,11.5,93,0.01,-RA,,0.39,WeatherDisplay:10.37,2013-04-10 18:45:00,
2013-04-10 14:50:00,43.8,41.9,29.86,NE,48,4.5,8.1,93,0.02,-RA,,0.40,WeatherDisplay:10.37,2013-04-10 18:50:00,
2013-04-10 14:55:00,43.6,41.7,29.85,ENE,57,7.2,9.2,93,0.08,RA,,0.47,WeatherDisplay:10.37,2013-04-10 18:55:00,
2013-04-10 15:00:00,43.3,41.4,29.85,NE,35,8.0,11.5,93,0.12,RA,,0.50,WeatherDisplay:10.37,2013-04-10 19:00:00,
2013-04-10 15:05:00,43.1,41.2,29.85,NE,47,8.8,11.5,93,0.12,RA,,0.50,WeatherDisplay:10.37,2013-04-10 19:05:00,
2013-04-10 15:10:00,42.9,41.0,29.85,NNE,32,5.3,13.8,93,0.12,OVC,,0.50,WeatherDisplay:10.37,2013-04-10 19:10:00,
2013-04-10 15:15:00,42.9,41.0,29.84,NE,48,7.0,12.0,93,0.00,OVC,,0.50,WeatherDisplay:10.37,2013-04-10 19:15:00,
2013-04-10 15:20:00,42.8,40.9,29.83,ENE,64,4.3,10.4,93,0.12,OVC,,0.50,WeatherDisplay:10.37,2013-04-10 19:20:00,
2013-04-10 15:25:00,42.8,40.9,29.91,NNE,12,6.0,10.0,93,0.00,OVC,,0.50,WeatherDisplay:10.37,2013-04-10 19:25:00,
2013-04-10 15:30:00,42.8,40.9,29.95,NW,317,7.5,11.5,93,0.22,RA,,0.60,WeatherDisplay:10.37,2013-04-10 19:30:00,
2013-04-10 15:35:00,42.8,40.9,29.93,North,349,9.0,15.0,93,0.01,RA,,0.63,WeatherDisplay:10.37,2013-04-10 19:35:00,
2013-04-10 15:40:00,42.6,40.7,29.92,NNE,17,4.5,9.2,93,0.26,RA,,0.64,WeatherDisplay:10.37,2013-04-10 19:40:00,
2013-04-10 15:45:00,42.4,40.5,29.88,NE,51,9.1,12.7,93,0.26,RA,,0.65,WeatherDisplay:10.37,2013-04-10 19:45:00,
2013-04-10 15:50:00,42.3,40.4,29.86,NNE,30,8.8,15.0,93,0.26,RA,,0.66,WeatherDisplay:10.37,2013-04-10 19:50:00,
2013-04-10 15:55:00,42.0,40.1,29.85,NE,44,10.6,15.0,93,0.22,RA,,0.66,WeatherDisplay:10.37,2013-04-10 19:55:00,
2013-04-10 16:00:00,41.8,39.9,29.82,NE,49,12.2,19.6,93,0.17,OVC,,0.66,WeatherDisplay:10.37,2013-04-10 20:00:00,
2013-04-10 16:05:00,41.7,39.8,29.81,NNE,32,10.2,13.8,93,0.16,OVC,,0.66,WeatherDisplay:10.37,2013-04-10 20:05:00,
2013-04-10 16:10:00,41.7,39.8,29.81,ENE,57,5.4,9.2,93,0.16,OVC,,0.66,WeatherDisplay:10.37,2013-04-10 20:10:00,
2013-04-10 16:15:00,41.9,40.0,29.82,NE,56,5.3,6.9,93,0.16,-RA,,0.66,WeatherDisplay:10.37,2013-04-10 20:15:00,
2013-04-10 16:20:00,42.2,40.3,29.83,NE,45,4.0,8.1,93,0.16,-RA,,0.66,WeatherDisplay:10.37,2013-04-10 20:20:00,
2013-04-10 16:25:00,42.6,40.7,29.85,North,360,8.8,13.8,93,0.16,-RA,,0.66,WeatherDisplay:10.37,2013-04-10 20:25:00,
2013-04-10 16:30:00,42.7,40.8,29.86,NE,40,9.8,12.7,93,0.06,-RA,,0.66,WeatherDisplay:10.37,2013-04-10 20:30:00,
2013-04-10 16:35:00,42.8,40.9,29.85,NE,55,5.8,10.4,93,0.04,-RA,,0.66,WeatherDisplay:10.37,2013-04-10 20:35:00,
2013-04-10 16:41:00,42.7,40.8,29.87,ENE,63,5.7,5.8,93,0.02,-RA,,0.66,WeatherDisplay:10.37,2013-04-10 20:41:00,
2013-04-10 16:46:00,42.6,40.7,29.87,NE,36,3.7,6.9,93,0.01,OVC,,0.66,WeatherDisplay:10.37,2013-04-10 20:46:00,
2013-04-10 16:51:00,42.6,40.7,29.88,NE,53,6.3,10.4,93,0.00,OVC,,0.66,WeatherDisplay:10.37,2013-04-10 20:51:00,
2013-04-10 16:56:00,42.5,40.6,29.89,NE,45,5.2,9.2,93,0.00,OVC,,0.66,WeatherDisplay:10.37,2013-04-10 20:56:00,
2013-04-10 17:01:00,42.5,40.6,29.89,NE,43,5.9,10.4,93,0.00,OVC,,0.66,WeatherDisplay:10.37,2013-04-10 21:01:00,
2013-04-10 17:06:00,42.4,40.5,29.89,NNE,21,5.2,5.8,93,0.00,OVC,,0.66,WeatherDisplay:10.37,2013-04-10 21:06:00,
2013-04-10 17:11:00,42.4,40.5,29.87,NE,40,9.9,16.1,93,0.00,OVC,,0.66,WeatherDisplay:10.37,2013-04-10 21:11:00,
2013-04-10 17:16:00,42.3,40.4,29.88,NE,47,3.5,6.9,93,0.00,OVC,,0.66,WeatherDisplay:10.37,2013-04-10 21:16:00,
2013-04-10 17:21:00,42.3,40.4,29.87,NE,45,8.2,12.7,93,0.00,OVC,,0.66,WeatherDisplay:10.37,2013-04-10 21:21:00,
2013-04-10 17:26:00,42.3,40.4,29.87,NNE,16,10.9,15.0,93,0.00,OVC,,0.66,WeatherDisplay:10.37,2013-04-10 21:26:00,
2013-04-10 17:32:00,42.2,40.3,29.89,NNE,17,10.0,13.8,93,0.00,OVC,,0.66,WeatherDisplay:10.37,2013-04-10 21:32:00,
2013-04-10 17:37:00,42.2,40.3,29.88,NNE,15,9.7,16.1,93,0.00,OVC,,0.66,WeatherDisplay:10.37,2013-04-10 21:37:00,
2013-04-10 17:42:00,42.2,40.3,29.89,NNE,16,6.3,9.2,93,0.00,OVC,,0.66,WeatherDisplay:10.37,2013-04-10 21:42:00,
2013-04-10 17:47:00,42.2,40.3,29.89,NE,46,8.6,12.7,93,0.00,OVC,,0.66,WeatherDisplay:10.37,2013-04-10 21:47:00,
2013-04-10 17:52:00,42.2,40.3,29.91,NNE,13,9.6,11.5,93,0.00,OVC,,0.66,WeatherDisplay:10.37,2013-04-10 21:52:00,
2013-04-10 17:57:00,42.2,40.3,29.91,NNE,31,7.2,12.7,93,0.00,OVC,,0.66,WeatherDisplay:10.37,2013-04-10 21:57:00,
2013-04-10 18:02:00,42.1,40.2,29.92,NNE,26,6.7,11.5,93,0.00,OVC,,0.66,WeatherDisplay:10.37,2013-04-10 22:02:00,
2013-04-10 18:07:00,42.2,40.3,29.92,NNE,29,11.1,15.0,93,0.00,OVC,,0.66,WeatherDisplay:10.37,2013-04-10 22:07:00,
2013-04-10 18:12:00,42.1,40.2,29.94,NNE,17,5.1,8.1,93,0.00,OVC,,0.66,WeatherDisplay:10.37,2013-04-10 22:12:00,
2013-04-10 18:17:00,42.1,40.2,29.93,NNE,27,9.6,12.7,93,0.00,OVC,,0.66,WeatherDisplay:10.37,2013-04-10 22:17:00,
2013-04-10 18:22:00,42.1,40.2,29.94,NNE,28,7.7,9.2,93,0.01,-RA,,0.67,WeatherDisplay:10.37,2013-04-10 22:22:00,
2013-04-10 18:27:00,42.1,40.2,29.94,NNE,22,6.3,10.4,93,0.02,-RA,,0.69,WeatherDisplay:10.37,2013-04-10 22:27:00,
2013-04-10 18:32:00,42.1,40.2,29.94,NNE,22,6.6,9.2,93,0.03,-RA,,0.69,WeatherDisplay:10.37,2013-04-10 22:32:00,
2013-04-10 18:37:00,42.0,40.1,29.95,NE,49,5.8,11.5,93,0.04,-RA,,0.70,WeatherDisplay:10.37,2013-04-10 22:37:00,
2013-04-10 18:43:00,42.0,40.1,29.93,NNE,17,6.1,8.1,93,0.04,-RA,,0.70,WeatherDisplay:10.37,2013-04-10 22:43:00,
2013-04-10 18:48:00,42.0,40.1,29.93,NNE,25,7.8,10.4,93,0.04,-RA,,0.70,WeatherDisplay:10.37,2013-04-10 22:48:00,
2013-04-10 18:53:00,41.9,40.0,29.91,NE,51,8.1,13.8,93,0.04,-RA,,0.70,WeatherDisplay:10.37,2013-04-10 22:53:00,
2013-04-10 18:58:00,41.9,40.0,29.90,NE,39,8.8,13.8,93,0.04,-RA,,0.70,WeatherDisplay:10.37,2013-04-10 22:58:00,
2013-04-10 19:03:00,41.9,40.0,29.91,NE,42,9.4,15.0,93,0.04,-RA,,0.70,WeatherDisplay:10.37,2013-04-10 23:03:00,
2013-04-10 19:08:00,41.9,40.0,29.91,NE,36,10.3,13.8,93,0.04,-RA,,0.70,WeatherDisplay:10.37,2013-04-10 23:08:00,
2013-04-10 19:13:00,41.8,39.9,29.92,NNE,19,9.6,13.8,93,0.04,-RA,,0.71,WeatherDisplay:10.37,2013-04-10 23:13:00,
2013-04-10 19:18:00,41.8,39.9,29.92,NNE,22,7.0,9.0,93,0.00,-RA,,0.71,WeatherDisplay:10.37,2013-04-10 23:18:00,
2013-04-10 19:23:00,41.8,39.9,29.93,NNE,21,7.5,12.7,93,0.04,-RA,,0.71,WeatherDisplay:10.37,2013-04-10 23:23:00,
2013-04-10 19:28:00,41.7,39.8,29.93,NNE,30,7.1,11.5,93,0.03,-RA,,0.71,WeatherDisplay:10.37,2013-04-10 23:28:00,
2013-04-10 19:33:00,41.7,39.8,29.93,NNE,25,7.0,10.0,93,0.00,-RA,,0.71,WeatherDisplay:10.37,2013-04-10 23:33:00,
2013-04-10 19:38:00,41.7,39.8,29.93,NE,45,7.9,10.4,93,0.01,-RA,,0.71,WeatherDisplay:10.37,2013-04-10 23:38:00,
2013-04-10 19:43:00,41.6,39.7,29.93,NNE,18,8.0,13.0,93,0.00,OVC,,0.71,WeatherDisplay:10.37,2013-04-10 23:43:00,
2013-04-10 19:48:00,41.5,39.6,29.93,NNE,20,7.0,12.0,93,0.00,OVC,,0.71,WeatherDisplay:10.37,2013-04-10 23:48:00,
2013-04-10 19:53:00,41.4,39.5,29.93,NNE,20,9.0,15.0,93,0.00,OVC,,0.71,WeatherDisplay:10.37,2013-04-10 23:53:00,
2013-04-10 19:58:00,41.2,39.3,29.92,NE,40,6.0,10.4,93,0.01,OVC,,0.71,WeatherDisplay:10.37,2013-04-10 23:58:00,
2013-04-10 20:03:00,41.1,39.2,29.92,NNE,21,4.3,10.4,93,0.01,OVC,,0.71,WeatherDisplay:10.37,2013-04-11 00:03:00,
2013-04-10 20:08:00,41.1,39.2,29.93,NE,35,4.4,9.2,93,0.01,OVC,,0.71,WeatherDisplay:10.37,2013-04-11 00:08:00,
2013-04-10 20:13:00,41.0,39.1,29.92,ENE,62,2.4,3.5,93,0.01,OVC,,0.71,WeatherDisplay:10.37,2013-04-11 00:13:00,
2013-04-10 20:18:00,41.0,39.1,29.92,North,360,6.1,10.4,93,0.00,OVC,,0.71,WeatherDisplay:10.37,2013-04-11 00:18:00,
2013-04-10 20:23:00,41.0,39.1,29.93,NNE,12,6.4,9.2,93,0.00,OVC,,0.71,WeatherDisplay:10.37,2013-04-11 00:23:00,
2013-04-10 20:28:00,41.0,39.1,29.94,NE,40,5.6,11.5,93,0.00,OVC,,0.71,WeatherDisplay:10.37,2013-04-11 00:28:00,
2013-04-10 20:33:00,41.0,39.1,29.96,NNE,13,5.5,8.1,93,0.00,OVC,,0.71,WeatherDisplay:10.37,2013-04-11 00:33:00,
2013-04-10 20:38:00,41.0,39.1,29.96,NE,44,5.1,8.1,93,0.00,OVC,,0.71,WeatherDisplay:10.37,2013-04-11 00:38:00,
2013-04-10 20:43:00,40.9,39.0,29.96,NNE,18,6.2,9.2,93,0.00,OVC,,0.71,WeatherDisplay:10.37,2013-04-11 00:43:00,
2013-04-10 20:48:00,40.9,39.0,29.97,NE,49,5.6,10.4,93,0.00,OVC,,0.71,WeatherDisplay:10.37,2013-04-11 00:48:00,
2013-04-10 20:53:00,40.9,39.0,29.98,NE,50,3.0,3.5,93,0.00,OVC,,0.71,WeatherDisplay:10.37,2013-04-11 00:53:00,
2013-04-10 20:58:00,40.9,39.0,29.99,NNE,22,3.1,5.8,93,0.00,OVC,,0.71,WeatherDisplay:10.37,2013-04-11 00:58:00,
2013-04-10 21:03:00,40.9,39.0,30.00,NE,36,2.9,4.6,93,0.00,OVC,,0.71,WeatherDisplay:10.37,2013-04-11 01:03:00,
2013-04-10 21:08:00,40.9,39.0,29.99,NE,36,3.8,5.8,93,0.00,OVC,,0.71,WeatherDisplay:10.37,2013-04-11 01:08:00,
2013-04-10 21:13:00,40.9,38.8,29.99,NNE,29,2.2,5.8,92,0.00,OVC,,0.71,WeatherDisplay:10.37,2013-04-11 01:13:00,
2013-04-10 21:18:00,40.9,38.8,29.99,NE,43,5.3,8.1,92,0.00,OVC,,0.71,WeatherDisplay:10.37,2013-04-11 01:18:00,
2013-04-10 21:23:00,40.8,38.7,29.99,NE,43,0.9,4.0,92,0.00,OVC,,0.71,WeatherDisplay:10.37,2013-04-11 01:23:00,
2013-04-10 21:28:00,40.9,39.0,29.98,NE,48,0.4,3.5,93,0.00,OVC,,0.71,WeatherDisplay:10.37,2013-04-11 01:28:00,
2013-04-10 21:33:00,40.8,38.9,29.98,NE,53,0.0,1.2,93,0.00,OVC,,0.71,WeatherDisplay:10.37,2013-04-11 01:33:00,
2013-04-10 21:38:00,40.8,38.7,29.98,NE,53,0.9,3.0,92,0.00,OVC,,0.71,WeatherDisplay:10.37,2013-04-11 01:38:00,
2013-04-10 21:43:00,40.8,38.7,29.98,NE,41,5.1,9.2,92,0.00,OVC,,0.71,WeatherDisplay:10.37,2013-04-11 01:43:00,
2013-04-10 21:48:00,40.7,38.6,29.98,NE,49,2.9,3.5,92,0.00,OVC,,0.71,WeatherDisplay:10.37,2013-04-11 01:48:00,
2013-04-10 21:53:00,40.7,38.6,29.97,NE,44,0.1,1.0,92,0.00,OVC,,0.71,WeatherDisplay:10.37,2013-04-11 01:53:00,
2013-04-10 21:58:00,40.7,38.6,29.97,NNE,26,3.7,6.0,92,0.00,OVC,,0.71,WeatherDisplay:10.37,2013-04-11 01:58:00,
2013-04-10 22:03:00,40.7,38.6,29.97,NE,49,3.0,3.5,92,0.00,OVC,,0.71,WeatherDisplay:10.37,2013-04-11 02:03:00,
2013-04-10 22:08:00,40.7,38.6,29.97,NE,49,5.9,8.1,92,0.00,OVC,,0.71,WeatherDisplay:10.37,2013-04-11 02:08:00,
2013-04-10 22:13:00,40.7,38.6,29.96,NE,46,6.2,6.2,92,0.00,OVC,,0.71,WeatherDisplay:10.37,2013-04-11 02:13:00,
2013-04-10 22:18:00,40.6,38.5,29.97,NNE,24,2.9,5.8,92,0.00,OVC,,0.71,WeatherDisplay:10.37,2013-04-11 02:18:00,
2013-04-10 22:23:00,40.6,38.5,29.97,NE,34,6.1,7.0,92,0.00,OVC,,0.71,WeatherDisplay:10.37,2013-04-11 02:23:00,
2013-04-10 22:28:00,40.5,38.4,29.97,NE,38,4.8,8.1,92,0.00,OVC,,0.71,WeatherDisplay:10.37,2013-04-11 02:28:00,
2013-04-10 22:33:00,40.5,38.4,29.98,NE,40,4.2,6.9,92,0.00,OVC,,0.71,WeatherDisplay:10.37,2013-04-11 02:33:00,
2013-04-10 22:38:00,40.5,38.4,29.98,NNE,31,4.1,5.8,92,0.00,OVC,,0.71,WeatherDisplay:10.37,2013-04-11 02:38:00,
2013-04-10 22:43:00,40.5,38.4,29.99,NNE,24,5.8,8.1,92,0.00,OVC,,0.71,WeatherDisplay:10.37,2013-04-11 02:43:00,
2013-04-10 22:48:00,40.4,38.3,29.99,NE,43,6.8,11.5,92,0.00,OVC,,0.71,WeatherDisplay:10.37,2013-04-11 02:48:00,
2013-04-10 22:53:00,40.3,38.2,29.99,NE,49,6.0,9.2,92,0.00,OVC,,0.71,WeatherDisplay:10.37,2013-04-11 02:53:00,
2013-04-10 22:58:00,40.2,38.1,29.99,NNE,15,5.5,6.0,92,0.00,OVC,,0.71,WeatherDisplay:10.37,2013-04-11 02:58:00,
2013-04-10 23:03:00,40.1,38.0,30.00,NNE,19,4.5,6.9,92,0.00,OVC,,0.71,WeatherDisplay:10.37,2013-04-11 03:03:00,
2013-04-10 23:09:00,40.1,38.0,30.00,NE,40,3.7,6.9,92,0.00,OVC,,0.71,WeatherDisplay:10.37,2013-04-11 03:09:00,
2013-04-10 23:14:00,40.0,37.9,30.00,NE,42,3.4,6.0,92,0.00,OVC,,0.71,WeatherDisplay:10.37,2013-04-11 03:14:00,
2013-04-10 23:19:00,40.0,37.9,30.00,NE,44,3.4,4.6,92,0.00,OVC,,0.71,WeatherDisplay:10.37,2013-04-11 03:19:00,
2013-04-10 23:24:00,39.9,37.8,29.98,NE,44,4.3,11.5,92,0.00,OVC,,0.71,WeatherDisplay:10.37,2013-04-11 03:24:00,
2013-04-10 23:29:00,39.9,37.8,29.97,NE,42,3.9,3.9,92,0.00,OVC,,0.71,WeatherDisplay:10.37,2013-04-11 03:29:00,
2013-04-10 23:34:00,39.8,37.4,29.97,NE,49,4.9,9.2,91,0.00,OVC,,0.71,WeatherDisplay:10.37,2013-04-11 03:34:00,
2013-04-10 23:39:00,39.7,37.3,29.97,NE,55,6.1,10.4,91,0.00,OVC,,0.71,WeatherDisplay:10.37,2013-04-11 03:39:00,
2013-04-10 23:44:00,39.7,37.3,29.96,NE,56,2.0,3.0,91,0.00,OVC,,0.71,WeatherDisplay:10.37,2013-04-11 03:44:00,
2013-04-10 23:49:00,39.5,37.1,29.96,ENE,59,3.0,6.9,91,0.00,OVC,,0.71,WeatherDisplay:10.37,2013-04-11 03:49:00,
2013-04-10 23:54:00,39.5,37.1,29.95,ENE,59,2.0,5.0,91,0.00,BKN,,0.71,WeatherDisplay:10.37,2013-04-11 03:54:00,
2013-04-10 23:59:00,39.3,36.9,29.95,ENE,65,3.0,10.0,91,0.00,BKN,,0.71,WeatherDisplay:10.37,2013-04-11 03:59:00,